FW9451 Weather Reports


Display with metric or nautical units.
time (UTC)temp
F
wind
direction
speed
MPH
gust
MPH
rain 1hr
in
rain 24hr
in
rain mn
in
humidity
%
barometer
mb
20260831071601 57 45 3.0 9.0 0.00 0.00 0.00 84 1019.4
20260831070100 57 23 2.0 10.0 0.00 0.00 0.00 83 1019.6
20260831064554 57 23 3.0 10.0 0.00 0.00 0.00 84 1019.6
20260831063112 57 350 3.0 9.0 0.00 0.00 0.00 84 1019.5
20260831061557 57 295 2.0 7.0 0.00 0.00 0.00 84 1019.6
20260831054556 58 343 2.0 6.0 0.00 0.00 0.00 83 1019.1
20260831053131 58 0 1.0 5.0 0.00 0.00 0.00 84 1018.9
20260831051559 58 313 2.0 5.0 0.00 0.00 0.00 85 1018.7
20260831050059 58 237 1.0 4.0 0.00 0.00 0.00 86 1018.6
20260831044637 58 0 1.0 7.0 0.00 0.00 0.00 86 1018.4
20260831043100 58 316 2.0 7.0 0.00 0.00 0.00 86 1018.4
20260831041603 59 336 1.0 5.0 0.00 0.00 0.00 87 1018.4
20260831040101 59 304 1.0 3.0 0.00 0.00 0.00 87 1018.4
20260831034601 60 0 0.0 4.0 0.00 0.00 0.00 87 1018.4
20260831033109 60 0 2.0 5.0 0.00 0.00 0.00 86 1018.3
20260831031555 60 261 1.0 4.0 0.00 0.00 0.00 85 1018.2
20260831024558 60 341 0.0 4.0 0.00 0.00 0.00 84 1018.5
20260831023102 61 355 2.0 9.0 0.00 0.00 0.00 82 1018.6
20260831021557 62 13 5.0 13.0 0.00 0.00 0.00 79 1018.8
20260831014558 67 138 9.0 23.0 0.00 0.00 0.00 65 1018.2
20260831013056 68 15 3.0 8.0 0.00 0.00 0.00 70 1017.6
20260831011556 68 0 1.0 6.0 0.00 0.00 0.00 71 1017.0
20260831010110 68 298 1.0 4.0 0.00 0.00 0.00 72 1016.9
20260831004557 68 251 1.0 6.0 0.00 0.00 0.00 71 1016.7
20260831003055 69 215 2.0 6.0 0.00 0.00 0.00 71 1016.6
20260831001601 69 220 2.0 9.0 0.00 0.00 0.00 71 1016.6
20260831000105 68 254 1.0 6.0 0.00 0.00 0.00 71 1016.4
20260830234615 68 214 2.0 8.0 0.00 0.00 0.00 72 1016.3
20260830233056 68 229 4.0 9.0 0.00 0.00 0.00 72 1016.3
20260830231558 70 250 6.0 14.0 0.00 0.00 0.00 68 1016.3
20260830224600 70 238 5.0 11.0 0.00 0.00 0.00 68 1016.2
20260830223057 71 235 5.0 12.0 0.00 0.00 0.00 68 1016.4
20260830221558 71 203 6.0 10.0 0.00 0.00 0.00 69 1016.2
20260830214607 71 228 4.0 9.0 0.00 0.00 0.00 70 1016.3
20260830213113 70 255 3.0 8.0 0.00 0.00 0.00 71 1016.3
20260830211607 70 234 5.0 9.0 0.00 0.00 0.00 71 1016.4
20260830210103 70 211 5.0 10.0 0.00 0.00 0.00 71 1016.4
20260830204555 70 219 6.0 10.0 0.00 0.00 0.00 72 1016.4
20260830203104 69 259 5.0 10.0 0.00 0.00 0.00 73 1016.5
20260830201606 69 245 7.0 12.0 0.00 0.00 0.00 73 1016.6
20260830200100 69 205 7.0 14.0 0.00 0.00 0.00 74 1016.6
20260830194558 69 225 7.0 14.0 0.00 0.00 0.00 73 1017.0
20260830193101 69 237 6.0 11.0 0.00 0.00 0.00 73 1017.0
20260830191559 69 223 8.0 14.0 0.00 0.00 0.00 74 1017.1
20260830190058 70 249 8.0 15.0 0.00 0.00 0.00 71 1017.4
20260830184558 71 252 4.0 11.0 0.00 0.00 0.00 69 1017.2
20260830183050 71 224 5.0 13.0 0.00 0.00 0.00 69 1017.6
20260830181558 70 248 6.0 13.0 0.00 0.00 0.00 68 1017.9
20260830180058 71 236 6.0 13.0 0.00 0.00 0.00 68 1018.0
20260830174551 71 241 8.0 17.0 0.00 0.00 0.00 66 1018.1
20260830173057 72 250 8.0 15.0 0.00 0.00 0.00 65 1018.3
20260830171558 72 252 8.0 14.0 0.00 0.00 0.00 64 1018.5
20260830170055 72 263 6.0 14.0 0.00 0.00 0.00 63 1018.5
20260830164600 72 217 7.0 14.0 0.00 0.00 0.00 63 1018.5
20260830163053 72 254 7.0 14.0 0.00 0.00 0.00 64 1018.4
20260830161620 72 210 7.0 12.0 0.00 0.00 0.00 64 1018.5
20260830160100 72 263 8.0 13.0 0.00 0.00 0.00 64 1018.7
20260830154556 72 209 7.0 12.0 0.00 0.00 0.00 65 1018.8
20260830153058 71 187 8.0 13.0 0.00 0.00 0.00 65 1018.9
20260830151600 71 232 7.0 16.0 0.00 0.00 0.00 65 1019.1
20260830150118 70 229 4.0 8.0 0.00 0.00 0.00 66 1019.2
20260830144603 70 242 6.0 11.0 0.00 0.00 0.00 66 1019.4
20260830143102 70 207 6.0 12.0 0.00 0.00 0.00 66 1019.5
20260830141606 68 248 6.0 11.0 0.00 0.00 0.00 69 1019.5
20260830140101 67 240 5.0 10.0 0.00 0.00 0.00 70 1019.6
20260830134558 66 274 4.0 9.0 0.00 0.00 0.00 71 1019.7
20260830133100 64 228 5.0 10.0 0.00 0.00 0.00 72 1019.7
20260830131559 64 209 5.0 10.0 0.00 0.00 0.00 73 1019.9
20260830130108 62 223 5.0 9.0 0.00 0.00 0.00 74 1019.9
20260830124553 61 216 4.0 8.0 0.00 0.00 0.00 75 1019.9
20260830123100 61 217 5.0 10.0 0.00 0.00 0.00 74 1020.0
20260830121601 62 219 6.0 11.0 0.00 0.00 0.00 73 1020.0
20260830120059 62 219 6.0 10.0 0.00 0.00 0.00 73 1020.0
20260830114605 62 234 5.0 10.0 0.00 0.00 0.00 73 1019.9
20260830113102 61 230 5.0 10.0 0.00 0.00 0.00 73 1020.0
20260830111559 61 238 5.0 10.0 0.00 0.00 0.00 73 1020.0
20260830110100 59 249 5.0 11.0 0.00 0.00 0.00 75 1020.0
20260830104550 59 244 5.0 10.0 0.00 0.00 0.00 75 1020.0
20260830103058 59 220 5.0 9.0 0.00 0.00 0.00 76 1020.2
20260830101554 58 217 5.0 7.0 0.00 0.00 0.00 76 1020.2
20260830100055 59 240 4.0 7.0 0.00 0.00 0.00 75 1020.3
20260830094603 60 205 5.0 8.0 0.00 0.00 0.00 74 1020.5
20260830093058 59 221 6.0 10.0 0.00 0.00 0.00 75 1020.5
20260830091557 59 211 6.0 10.0 0.00 0.00 0.00 74 1020.6
20260830090128 60 223 6.0 10.0 0.00 0.00 0.00 73 1020.4
20260830084600 60 240 6.0 11.0 0.00 0.00 0.00 72 1020.3
20260830083101 60 214 5.0 11.0 0.00 0.00 0.00 72 1020.5
20260830081601 60 201 3.0 9.0 0.00 0.00 0.00 71 1020.5
20260830074615 61 234 4.0 9.0 0.00 0.00 0.00 71 1020.6
20260830073057 60 218 4.0 7.0 0.00 0.00 0.00 72 1020.5